Location: New Town
(33.2710°N, 90.7534°W)
Time: 12:52:59
(UTC+00:00)

Explorer 11/Cluster Stage 4 - Pass Details

Date: 15 May 2021
Orbit: 467 x 1257 km, 28.8° (Epoch: 14 June)

Event Time Altitude Azimuth Distance (km) Brightness Sun altitude
Rises 05:10:20 0° 271° (W) 4,197 10.5 -36.5°
Reaches altitude 10° 05:13:24 10° 267° (W) 3,213 9.8 -36.7°
Enters shadow 05:15:27 19° 262° (W) 2,582 9.2 -36.8°
Maximum altitude 05:21:15 52° 194° (SSW) 1,415 - -37.0°
Drops below altitude 10° 05:28:10 10° 120° (ESE) 2,842 - -37.3°
Sets 05:30:45 0° 115° (ESE) 3,684 - -37.4°
